This demonstration page uses our WeatherBlox Daily Observations layout. Learn more.

Left ArrowRight Arrow

Hourly Observations for August 6, 2018

Temp ( °F °C ) Dew Point ( °F °C ) Humidity (%) Winds ( mph kmh ) Pressure ( in mb ) Visibility ( mi km ) Precip ( " mm )
12:16 am 00:16 Clear 72 22 72 22 100 100 S 3 6 30.15 1021 10 16 N/A
12:36 am 00:36 Clear 72 22 72 22 100 100 S 6 9 30.15 1021 10 16 N/A
12:57 am 00:57 Clear 73 23 73 23 100 100 S 5 7 30.12 1020 10 16 N/A
1:16 am 01:16 Clear 73 23 73 23 100 100 S 6 9 30.12 1020 10 16 N/A
1:37 am 01:37 Clear 73 23 73 23 100 100 SSW 7 11 30.12 1020 10 16 N/A
1:56 am 01:56 Clear 72 22 72 22 100 100 SSW 6 9 30.15 1021 10 16 N/A
2:17 am 02:17 Clear 72 22 72 22 100 100 S 5 7 30.15 1021 10 16 N/A
2:37 am 02:37 Clear 72 22 72 22 100 100 S 5 7 30.09 1019 10 16 N/A
2:56 am 02:56 Clear 72 22 72 22 100 100 S 5 7 30.09 1019 10 16 N/A
3:17 am 03:17 Clear 72 22 72 22 100 100 S 6 9 30.09 1019 10 16 N/A
3:36 am 03:36 Clear 72 22 72 22 100 100 S 5 7 30.09 1019 10 16 N/A
3:57 am 03:57 Clear 70 21 70 21 100 100 SSW 3 6 30.12 1020 10 16 N/A
4:16 am 04:16 Clear 70 21 70 21 100 100 S 3 6 30.12 1020 10 16 N/A
4:37 am 04:37 Clear 70 21 70 21 100 100 S 6 9 30.12 1020 10 16 N/A
4:57 am 04:57 Clear 70 21 70 21 100 100 S 3 6 30.15 1021 10 16 N/A
5:16 am 05:16 Clear 68 20 68 20 100 100 N N/A 30.15 1021 7 11 N/A
5:37 am 05:37 Clear 68 20 68 20 100 100 S 3 6 30.15 1021 5 8 N/A
5:56 am 05:56 Clear 68 20 68 20 100 100 S 3 6 30.15 1021 5 8 N/A
6:17 am 06:17 Clear 68 20 68 20 100 100 N N/A 30.12 1020 5 8 N/A
6:37 am 06:37 Clear 68 20 68 20 100 100 S 3 6 30.12 1020 5 8 N/A
6:56 am 06:56 Sunny 68 20 68 20 100 100 S 5 7 30.12 1020 5 8 N/A
7:17 am 07:17 Sunny 68 20 68 20 100 100 S 6 9 30.12 1020 7 11 N/A
7:36 am 07:36 Sunny 68 20 68 20 100 100 S 5 7 30.12 1020 5 8 N/A
7:57 am 07:57 Sunny 70 21 70 21 100 100 S 6 9 30.12 1020 7 11 N/A
8:17 am 08:17 Sunny 72 22 72 22 100 100 S 5 7 30.09 1019 10 16 N/A
8:36 am 08:36 Sunny 72 22 72 22 100 100 S 3 6 30.09 1019 10 16 N/A
8:57 am 08:57 Sunny 73 23 73 23 100 100 S 5 7 30.12 1020 10 16 N/A
9:16 am 09:16 Sunny 75 24 75 24 100 100 S 7 11 30.12 1020 10 16 N/A
9:37 am 09:37 Sunny 75 24 75 24 100 100 SSW 6 9 30.12 1020 10 16 N/A
9:57 am 09:57 Sunny 77 25 75 24 94 94 S 6 9 30.12 1020 10 16 N/A
10:16 am 10:16 Sunny 79 26 77 25 94 94 S 6 9 30.09 1019 10 16 N/A
10:37 am 10:37 Sunny 81 27 77 25 89 89 S 5 7 30.09 1019 10 16 N/A
10:56 am 10:56 Sunny 81 27 79 26 94 94 S 7 11 30.09 1019 10 16 N/A
11:17 am 11:17 Partly Cloudy 82 28 79 26 89 89 S 8 13 30.09 1019 10 16 N/A
11:36 am 11:36 Partly Cloudy 82 28 79 26 89 89 S 8 13 30.09 1019 10 16 N/A
11:57 am 11:57 Partly Cloudy 82 28 79 26 89 89 SSE 8 13 30.09 1019 10 16 N/A
12:17 pm 12:17 Sunny 82 28 79 26 89 89 SSW 7 11 30.09 1019 10 16 N/A
12:36 pm 12:36 Sunny 84 29 77 25 79 79 S 10 17 30.09 1019 10 16 N/A
12:57 pm 12:57 Partly Cloudy 84 29 77 25 79 79 SSW 10 17 30.09 1019 10 16 N/A
1:16 pm 13:16 Sunny 84 29 79 26 84 84 S 9 15 30.09 1019 10 16 N/A
1:36 pm 13:36 Partly Cloudy 84 29 77 25 79 79 S 13 20 30.09 1019 10 16 N/A
1:57 pm 13:57 Partly Cloudy 86 30 79 26 79 79 SSW 13 20 30.06 1018 10 16 N/A
2:16 pm 14:16 Sunny 86 30 77 25 75 75 SSW 12 19 30.06 1018 10 16 N/A
2:35 pm 14:35 Sunny 86 30 79 26 79 79 SSW 14 22 30.06 1018 10 16 N/A
2:57 pm 14:57 Sunny 86 30 79 26 79 79 S 8 13 30.03 1017 10 16 N/A
3:16 pm 15:16 Partly Cloudy 86 30 79 26 79 79 SSW 10 17 30.03 1017 10 16 N/A
3:37 pm 15:37 Partly Cloudy 86 30 79 26 79 79 SSW 13 20 30.03 1017 10 16 N/A
3:56 pm 15:56 Partly Cloudy 86 30 79 26 79 79 SSW 14 22 30.03 1017 10 16 N/A
4:17 pm 16:17 Partly Cloudy 86 30 79 26 79 79 SSW 14 22 30.00 1016 10 16 N/A
4:36 pm 16:36 Sunny 86 30 79 26 79 79 S 8 13 30.00 1016 10 16 N/A
4:57 pm 16:57 Partly Cloudy 86 30 79 26 79 79 SSW 10 17 30.00 1016 10 16 N/A
5:16 pm 17:16 Mostly Cloudy 86 30 79 26 79 79 SW 13 20 30.00 1016 10 16 N/A
5:37 pm 17:37 Partly Cloudy 88 31 79 26 75 75 SSW 8 13 29.97 1015 10 16 N/A
5:57 pm 17:57 Partly Cloudy 86 30 77 25 75 75 W 9 15 30.00 1016 10 16 N/A
6:16 pm 18:16 Partly Cloudy 84 29 77 25 79 79 WSW 12 19 30.00 1016 10 16 N/A
6:37 pm 18:37 Sunny 84 29 77 25 79 79 WSW 10 17 30.00 1016 10 16 N/A
6:56 pm 18:56 Sunny 86 30 77 25 75 75 WSW 8 13 30.00 1016 10 16 N/A
7:16 pm 19:16 Sunny 86 30 77 25 75 75 SW 9 15 29.97 1015 10 16 N/A
7:37 pm 19:37 Sunny 84 29 77 25 79 79 SW 14 22 29.97 1015 10 16 N/A
7:56 pm 19:56 Sunny 84 29 77 25 79 79 SW 6 9 29.97 1015 10 16 N/A
8:17 pm 20:17 Sunny 82 28 77 25 84 84 SW 8 13 29.97 1015 10 16 N/A
8:36 pm 20:36 Sunny 82 28 77 25 84 84 SW 7 11 30.00 1016 10 16 N/A
8:57 pm 20:57 Clear 81 27 77 25 89 89 SSW 6 9 29.97 1015 10 16 N/A
9:17 pm 21:17 Clear 79 26 77 25 94 94 S 3 6 30.00 1016 10 16 N/A
9:36 pm 21:36 Clear 79 26 77 25 94 94 S 3 6 30.00 1016 10 16 N/A
9:57 pm 21:57 Clear 79 26 77 25 94 94 S 5 7 30.00 1016 10 16 N/A
10:16 pm 22:16 Clear 77 25 77 25 100 100 S 5 7 30.00 1016 10 16 N/A
10:37 pm 22:37 Clear 77 25 77 25 100 100 SSW 3 6 30.00 1016 10 16 N/A
10:56 pm 22:56 Clear 77 25 77 25 100 100 SSW 3 6 30.00 1016 10 16 N/A
11:17 pm 23:17 Partly Cloudy 77 25 77 25 100 100 S 3 6 30.00 1016 10 16 N/A
11:37 pm 23:37 Partly Cloudy 77 25 77 25 100 100 S 3 6 30.00 1016 10 16 N/A
11:56 pm 23:56 Partly Cloudy 77 25 77 25 100 100 S 7 11 29.97 1015 10 16 N/A

Powered by AerisWeather